Time,TemperatureF,DewpointF,PressureIn,WindDirection,WindDirectionDegrees,WindSpeedMPH,WindSpeedGustMPH,Humidity,HourlyPrecipIn,Conditions,Clouds,dailyrainin,SoftwareType,DateUTC
2013-01-25 00:16:00,11.6,-7.0,30.24,WNW,285,5.0,-999.0,44,-99.99,,,0.00,weatherlink.com 1.10,2013-01-25 05:16:00,
2013-01-25 00:32:00,11.4,-7.0,30.23,WNW,284,4.0,-999.0,44,-99.99,,,0.00,weatherlink.com 1.10,2013-01-25 05:32:00,
2013-01-25 00:46:00,11.1,-7.0,30.24,West,265,9.0,-999.0,44,-99.99,,,0.00,weatherlink.com 1.10,2013-01-25 05:46:00,
2013-01-25 01:01:00,11.0,-8.0,30.23,WNW,284,3.0,-999.0,43,-99.99,,,0.00,weatherlink.com 1.10,2013-01-25 06:01:00,
2013-01-25 01:16:00,10.9,-7.0,30.25,WNW,292,3.0,-999.0,44,-99.99,,,0.00,weatherlink.com 1.10,2013-01-25 06:16:00,
2013-01-25 01:32:00,10.7,-7.0,30.25,WNW,284,3.0,-999.0,44,-99.99,,,0.00,weatherlink.com 1.10,2013-01-25 06:32:00,
2013-01-25 01:46:00,10.6,-7.0,30.25,NW,320,2.0,-999.0,44,-99.99,,,0.00,weatherlink.com 1.10,2013-01-25 06:46:00,
2013-01-25 02:01:00,10.6,-7.0,30.26,NW,315,1.0,-999.0,44,-99.99,,,0.00,weatherlink.com 1.10,2013-01-25 07:01:00,
2013-01-25 02:16:00,10.3,-7.0,30.27,WNW,282,1.0,-999.0,45,-99.99,,,0.00,weatherlink.com 1.10,2013-01-25 07:16:00,
2013-01-25 02:31:00,10.2,-7.0,30.27,WNW,297,7.0,-999.0,46,-99.99,,,0.00,weatherlink.com 1.10,2013-01-25 07:31:00,
2013-01-25 02:46:00,9.8,-7.0,30.27,WNW,298,5.0,-999.0,46,-99.99,,,0.00,weatherlink.com 1.10,2013-01-25 07:46:00,
2013-01-25 03:01:00,9.4,-7.0,30.27,WNW,288,1.0,-999.0,48,-99.99,,,0.00,weatherlink.com 1.10,2013-01-25 08:01:00,
2013-01-25 03:17:00,8.8,-7.0,30.27,WNW,286,2.0,-999.0,49,-99.99,,,0.00,weatherlink.com 1.10,2013-01-25 08:17:00,
2013-01-25 03:32:00,8.5,-7.0,30.27,WNW,295,0.0,-999.0,49,-99.99,,,0.00,weatherlink.com 1.10,2013-01-25 08:32:00,
2013-01-25 03:46:00,8.1,-7.0,30.28,West,277,2.0,-999.0,50,-99.99,,,0.00,weatherlink.com 1.10,2013-01-25 08:46:00,
2013-01-25 04:01:00,8.2,-7.0,30.28,West,281,3.0,-999.0,51,-99.99,,,0.00,weatherlink.com 1.10,2013-01-25 09:01:00,
2013-01-25 04:17:00,8.1,-7.0,30.28,West,264,1.0,-999.0,51,-99.99,,,0.00,weatherlink.com 1.10,2013-01-25 09:17:00,
2013-01-25 04:31:00,7.9,-7.0,30.28,West,263,3.0,-999.0,52,-99.99,,,0.00,weatherlink.com 1.10,2013-01-25 09:31:00,
2013-01-25 04:46:00,7.9,-7.0,30.28,WSW,251,2.0,-999.0,52,-99.99,,,0.00,weatherlink.com 1.10,2013-01-25 09:46:00,
2013-01-25 05:01:00,8.5,-6.0,30.28,West,274,9.0,-999.0,51,-99.99,,,0.00,weatherlink.com 1.10,2013-01-25 10:01:00,
2013-01-25 05:17:00,8.9,-6.0,30.28,WNW,288,3.0,-999.0,51,-99.99,,,0.00,weatherlink.com 1.10,2013-01-25 10:17:00,
2013-01-25 05:31:00,9.1,-6.0,30.29,West,281,6.0,-999.0,50,-99.99,,,0.00,weatherlink.com 1.10,2013-01-25 10:31:00,
2013-01-25 05:46:00,9.0,-6.0,30.29,WNW,294,2.0,-999.0,50,-99.99,,,0.00,weatherlink.com 1.10,2013-01-25 10:46:00,
2013-01-25 06:01:00,8.7,-7.0,30.28,WNW,303,0.0,-999.0,50,-99.99,,,0.00,weatherlink.com 1.10,2013-01-25 11:01:00,
2013-01-25 06:16:00,8.3,-7.0,30.28,WNW,290,0.0,-999.0,51,-99.99,,,0.00,weatherlink.com 1.10,2013-01-25 11:16:00,
2013-01-25 06:31:00,7.6,-7.0,30.28,WNW,291,1.0,-999.0,52,-99.99,,,0.00,weatherlink.com 1.10,2013-01-25 11:31:00,
2013-01-25 06:46:00,7.0,-7.0,30.28,WNW,286,1.0,-999.0,54,-99.99,,,0.00,weatherlink.com 1.10,2013-01-25 11:46:00,
2013-01-25 07:02:00,6.8,-7.0,30.28,WNW,286,0.0,-999.0,54,-99.99,,,0.00,weatherlink.com 1.10,2013-01-25 12:02:00,
2013-01-25 07:17:00,6.4,-7.0,30.28,WNW,286,1.0,-999.0,55,-99.99,,,0.00,weatherlink.com 1.10,2013-01-25 12:17:00,
2013-01-25 07:31:00,6.4,-6.0,30.28,WNW,284,0.0,-999.0,57,-99.99,,,0.00,weatherlink.com 1.10,2013-01-25 12:31:00,
2013-01-25 07:46:00,7.3,-6.0,30.28,WNW,288,0.0,-999.0,55,-99.99,,,0.00,weatherlink.com 1.10,2013-01-25 12:46:00,
2013-01-25 08:01:00,8.3,-5.0,30.28,WNW,294,2.0,-999.0,54,-99.99,,,0.00,weatherlink.com 1.10,2013-01-25 13:01:00,
2013-01-25 08:16:00,10.6,-4.0,30.30,WNW,292,3.0,-999.0,51,-99.99,,,0.00,weatherlink.com 1.10,2013-01-25 13:16:00,
2013-01-25 08:31:00,11.7,-5.0,30.30,WNW,286,10.0,-999.0,47,-99.99,,,0.00,weatherlink.com 1.10,2013-01-25 13:31:00,
2013-01-25 08:46:00,12.6,-5.0,30.30,West,278,3.0,-999.0,46,-99.99,,,0.00,weatherlink.com 1.10,2013-01-25 13:46:00,
2013-01-25 09:02:00,13.1,-4.0,30.30,WNW,292,2.0,-999.0,46,-99.99,,,0.00,weatherlink.com 1.10,2013-01-25 14:02:00,
2013-01-25 09:16:00,13.9,-4.0,30.31,WNW,297,4.0,-999.0,44,-99.99,,,0.00,weatherlink.com 1.10,2013-01-25 14:16:00,
2013-01-25 09:47:00,15.3,-4.0,30.31,WNW,299,2.0,-999.0,42,-99.99,,,0.00,weatherlink.com 1.10,2013-01-25 14:47:00,
2013-01-25 10:01:00,15.9,-4.0,30.31,NW,322,0.0,-999.0,41,-99.99,,,0.00,weatherlink.com 1.10,2013-01-25 15:01:00,
2013-01-25 10:17:00,16.5,-5.0,30.30,WNW,288,13.0,-999.0,39,-99.99,,,0.00,weatherlink.com 1.10,2013-01-25 15:17:00,
2013-01-25 10:31:00,17.0,-5.0,30.30,NNW,338,3.0,-999.0,37,-99.99,,,0.00,weatherlink.com 1.10,2013-01-25 15:31:00,
2013-01-25 10:46:00,17.9,-4.0,30.29,West,270,7.0,-999.0,37,-99.99,,,0.00,weatherlink.com 1.10,2013-01-25 15:46:00,
2013-01-25 11:01:00,18.8,-5.0,30.29,NNW,340,4.0,-999.0,35,-99.99,,,0.00,weatherlink.com 1.10,2013-01-25 16:01:00,
2013-01-25 11:16:00,19.4,-4.0,30.27,NW,312,5.0,-999.0,35,-99.99,,,0.00,weatherlink.com 1.10,2013-01-25 16:16:00,
2013-01-25 11:31:00,19.5,-5.0,30.26,NW,317,3.0,-999.0,34,-99.99,,,0.00,weatherlink.com 1.10,2013-01-25 16:31:00,
2013-01-25 11:47:00,20.4,-5.0,30.26,NW,308,3.0,-999.0,33,-99.99,,,0.00,weatherlink.com 1.10,2013-01-25 16:47:00,
2013-01-25 12:01:00,21.1,-5.0,30.25,WNW,293,9.0,-999.0,32,-99.99,,,0.00,weatherlink.com 1.10,2013-01-25 17:01:00,
2013-01-25 12:17:00,21.5,-3.0,30.25,WNW,298,3.0,-999.0,34,-99.99,,,0.00,weatherlink.com 1.10,2013-01-25 17:17:00,
2013-01-25 12:31:00,21.8,-3.0,30.24,West,278,2.0,-999.0,34,-99.99,,,0.00,weatherlink.com 1.10,2013-01-25 17:31:00,
2013-01-25 12:46:00,22.3,-2.0,30.23,WNW,298,13.0,-999.0,35,-99.99,,,0.00,weatherlink.com 1.10,2013-01-25 17:46:00,
2013-01-25 13:01:00,22.6,-3.0,30.21,WSW,240,7.0,-999.0,32,-99.99,,,0.00,weatherlink.com 1.10,2013-01-25 18:01:00,
2013-01-25 13:17:00,23.0,-2.0,30.21,WNW,284,3.0,-999.0,33,-99.99,,,0.00,weatherlink.com 1.10,2013-01-25 18:17:00,
2013-01-25 13:32:00,23.6,-3.0,30.19,WNW,296,1.0,-999.0,31,-99.99,,,0.00,weatherlink.com 1.10,2013-01-25 18:32:00,
2013-01-25 13:47:00,24.5,-2.0,30.19,WSW,244,3.0,-999.0,31,-99.99,,,0.00,weatherlink.com 1.10,2013-01-25 18:47:00,
2013-01-25 14:02:00,24.2,-3.0,30.19,WNW,292,2.0,-999.0,31,-99.99,,,0.00,weatherlink.com 1.10,2013-01-25 19:02:00,
2013-01-25 14:17:00,23.9,-2.0,30.18,WNW,286,4.0,-999.0,32,-99.99,,,0.00,weatherlink.com 1.10,2013-01-25 19:17:00,
2013-01-25 14:31:00,23.9,-3.0,30.17,WNW,299,4.0,-999.0,31,-99.99,,,0.00,weatherlink.com 1.10,2013-01-25 19:31:00,
2013-01-25 14:46:00,23.9,-3.0,30.16,NW,323,1.0,-999.0,30,-99.99,,,0.00,weatherlink.com 1.10,2013-01-25 19:46:00,
2013-01-25 15:02:00,24.0,-3.0,30.16,NW,310,4.0,-999.0,31,-99.99,,,0.00,weatherlink.com 1.10,2013-01-25 20:02:00,
2013-01-25 15:17:00,24.5,-2.0,30.16,WSW,250,3.0,-999.0,31,-99.99,,,0.00,weatherlink.com 1.10,2013-01-25 20:17:00,
2013-01-25 15:31:00,24.3,-2.0,30.16,WNW,290,1.0,-999.0,31,-99.99,,,0.00,weatherlink.com 1.10,2013-01-25 20:31:00,
2013-01-25 15:46:00,23.9,-2.0,30.16,West,269,0.0,-999.0,33,-99.99,,,0.00,weatherlink.com 1.10,2013-01-25 20:46:00,
2013-01-25 16:01:00,23.7,-1.0,30.15,WNW,291,0.0,-999.0,34,-99.99,,,0.00,weatherlink.com 1.10,2013-01-25 21:01:00,
2013-01-25 16:16:00,23.6,-1.0,30.15,WNW,288,0.0,-999.0,34,-99.99,,,0.00,weatherlink.com 1.10,2013-01-25 21:16:00,
2013-01-25 16:31:00,23.5,-1.0,30.15,WNW,288,0.0,-999.0,35,-99.99,,,0.00,weatherlink.com 1.10,2013-01-25 21:31:00,
2013-01-25 16:47:00,23.3,-1.0,30.15,WNW,288,0.0,-999.0,35,-99.99,,,0.00,weatherlink.com 1.10,2013-01-25 21:47:00,
2013-01-25 17:01:00,23.1,1.0,30.15,WSW,257,3.0,-999.0,38,-99.99,,,0.00,weatherlink.com 1.10,2013-01-25 22:01:00,
2013-01-25 17:16:00,22.9,2.0,30.15,WSW,250,0.0,-999.0,40,-99.99,,,0.00,weatherlink.com 1.10,2013-01-25 22:16:00,
2013-01-25 17:31:00,22.7,2.0,30.14,WSW,250,0.0,-999.0,41,-99.99,,,0.00,weatherlink.com 1.10,2013-01-25 22:31:00,
2013-01-25 17:47:00,22.5,2.0,30.14,WSW,250,0.0,-999.0,41,-99.99,,,0.00,weatherlink.com 1.10,2013-01-25 22:47:00,
2013-01-25 18:02:00,22.2,3.0,30.14,WSW,251,0.0,-999.0,43,-99.99,,,0.00,weatherlink.com 1.10,2013-01-25 23:02:00,
2013-01-25 18:16:00,22.1,3.0,30.14,WSW,252,0.0,-999.0,44,-99.99,,,0.00,weatherlink.com 1.10,2013-01-25 23:16:00,
2013-01-25 18:31:00,22.0,4.0,30.14,WSW,253,0.0,-999.0,45,-99.99,,,0.00,weatherlink.com 1.10,2013-01-25 23:31:00,
2013-01-25 18:46:00,21.9,3.0,30.13,WSW,251,2.0,-999.0,45,-99.99,,,0.00,weatherlink.com 1.10,2013-01-25 23:46:00,
2013-01-25 19:02:00,21.8,3.0,30.13,WSW,247,0.0,-999.0,45,-99.99,,,0.00,weatherlink.com 1.10,2013-01-26 00:02:00,
2013-01-25 19:16:00,21.7,3.0,30.12,SW,236,3.0,-999.0,45,-99.99,,,0.00,weatherlink.com 1.10,2013-01-26 00:16:00,
2013-01-25 19:31:00,21.5,4.0,30.12,SW,229,0.0,-999.0,46,-99.99,,,0.00,weatherlink.com 1.10,2013-01-26 00:31:00,
2013-01-25 19:46:00,21.4,3.0,30.11,SW,229,0.0,-999.0,45,-99.99,,,0.00,weatherlink.com 1.10,2013-01-26 00:46:00,
2013-01-25 20:16:00,21.3,4.0,30.10,SW,229,0.0,-999.0,48,-99.99,,,0.00,weatherlink.com 1.10,2013-01-26 01:16:00,
2013-01-25 20:31:00,21.2,5.0,30.09,SW,230,0.0,-999.0,49,-99.99,,,0.00,weatherlink.com 1.10,2013-01-26 01:31:00,
2013-01-25 20:46:00,21.2,4.0,30.08,SW,230,0.0,-999.0,48,-99.99,,,0.00,weatherlink.com 1.10,2013-01-26 01:46:00,
2013-01-25 21:02:00,21.2,5.0,30.08,SW,230,0.0,-999.0,50,-99.99,,,0.00,weatherlink.com 1.10,2013-01-26 02:02:00,
2013-01-25 21:16:00,21.1,5.0,30.07,SW,230,0.0,-999.0,49,-99.99,,,0.00,weatherlink.com 1.10,2013-01-26 02:16:00,
2013-01-25 21:31:00,21.1,5.0,30.08,SW,230,0.0,-999.0,49,-99.99,,,0.00,weatherlink.com 1.10,2013-01-26 02:31:00,
2013-01-25 21:46:00,21.1,5.0,30.08,SW,230,1.0,-999.0,51,-99.99,,,0.00,weatherlink.com 1.10,2013-01-26 02:46:00,
2013-01-25 22:02:00,21.0,6.0,30.07,SW,231,0.0,-999.0,52,-99.99,,,0.00,weatherlink.com 1.10,2013-01-26 03:02:00,
2013-01-25 22:16:00,20.9,8.0,30.06,SSW,196,7.0,-999.0,58,-99.99,,,0.00,weatherlink.com 1.10,2013-01-26 03:16:00,
2013-01-25 22:31:00,20.4,10.0,30.06,SW,217,0.0,-999.0,64,-99.99,,,0.00,weatherlink.com 1.10,2013-01-26 03:31:00,
2013-01-25 22:46:00,20.0,11.0,30.05,SW,217,0.0,-999.0,68,-99.99,,,0.00,weatherlink.com 1.10,2013-01-26 03:46:00,
2013-01-25 23:02:00,19.6,12.0,30.05,SW,217,0.0,-999.0,72,-99.99,,,0.00,weatherlink.com 1.10,2013-01-26 04:02:00,
2013-01-25 23:17:00,19.1,12.0,30.05,SW,217,0.0,-999.0,74,-99.99,,,0.00,weatherlink.com 1.10,2013-01-26 04:17:00,
2013-01-25 23:32:00,18.8,12.0,30.05,SW,217,0.0,-999.0,76,-99.99,,,0.00,weatherlink.com 1.10,2013-01-26 04:32:00,
2013-01-25 23:46:00,18.6,13.0,30.05,SW,217,0.0,-999.0,78,-99.99,,,0.00,weatherlink.com 1.10,2013-01-26 04:46:00,